CW3643 Weather Reports


time (UTC)temp
C
wind
direction
speed
KPH
gust
KPH
rain 1hr
cm
rain 24hr
cm
rain mn
cm
humidity
%
barometer
mb
20260506041027 12 2 4.8 12.9 0.00 0.00 0.00 82 1014.8
20260506035511 12 348 3.2 11.3 0.00 0.00 0.00 82 1014.8
20260506035037 12 343 4.8 14.5 0.00 0.00 0.00 82 1014.8
20260506034036 12 349 6.4 12.9 0.00 0.00 0.00 82 1014.9
20260506033513 12 8 8.0 12.9 0.00 0.00 0.00 82 1014.9
20260506033010 12 12 4.8 11.3 0.00 0.00 0.00 82 1015.1
20260506032544 12 6 6.4 11.3 0.00 0.00 0.00 82 1015.0
20260506032012 12 326 6.4 14.5 0.00 0.00 0.00 82 1015.0
20260506031531 12 310 6.4 14.5 0.00 0.00 0.00 82 1015.1
20260506031049 12 331 4.8 14.5 0.00 0.00 0.00 82 1015.1
20260506030515 12 325 8.0 14.5 0.00 0.00 0.00 82 1015.1
20260506030012 12 336 3.2 8.0 0.00 0.00 0.00 82 1015.2
20260506025530 12 338 1.6 8.0 0.00 0.00 0.00 82 1015.2
20260506025037 12 351 1.6 9.7 0.00 0.00 0.00 82 1015.2
20260506024523 12 1 3.2 9.7 0.00 0.00 0.00 82 1015.2
20260506024020 12 325 3.2 12.9 0.00 0.00 0.00 82 1015.2
20260506023546 12 348 6.4 12.9 0.00 0.00 0.00 82 1015.1
20260506023024 12 310 6.4 12.9 0.00 0.00 0.00 81 1015.1
20260506022541 12 4 4.8 8.0 0.00 0.00 0.00 82 1015.2
20260506022018 13 323 4.8 8.0 0.00 0.00 0.00 81 1015.2
20260506021524 13 33 4.8 9.7 0.00 0.00 0.00 81 1015.2
20260506021023 13 355 1.6 9.7 0.00 0.00 0.00 81 1015.3
20260506020529 13 24 3.2 14.5 0.00 0.00 0.00 81 1015.3
20260506020048 13 16 3.2 16.1 0.00 0.00 0.00 81 1015.4
20260506015524 13 8 6.4 16.1 0.00 0.00 0.00 81 1015.5
20260506015026 13 12 6.4 12.9 0.00 0.00 0.00 81 1015.6
20260506014532 13 8 4.8 11.3 0.00 0.00 0.00 81 1015.6
20260506014051 13 24 4.8 11.3 0.00 0.00 0.00 81 1015.5
20260506013536 13 340 4.8 9.7 0.00 0.00 0.00 81 1015.6
20260506013036 13 310 3.2 11.3 0.00 0.00 0.00 81 1015.6
20260506012514 13 84 3.2 11.3 0.00 0.00 0.00 81 1015.7
20260506012010 13 293 4.8 11.3 0.00 0.00 0.00 81 1015.8
20260506011517 13 338 4.8 11.3 0.00 0.00 0.00 81 1015.8
20260506011024 13 27 0.0 16.1 0.00 0.00 0.00 81 1015.8
20260506010522 13 24 9.7 16.1 0.00 0.00 0.00 81 1015.9
20260506010020 13 18 8.0 19.3 0.00 0.00 0.00 81 1016.0
20260506005537 13 350 4.8 14.5 0.00 0.00 0.00 81 1016.0
20260506005022 13 338 3.2 11.3 0.00 0.00 0.00 81 1016.0
20260506004521 13 338 4.8 16.1 0.00 0.00 0.00 81 1016.1
20260506004020 13 6 8.0 17.7 0.00 0.00 0.00 81 1016.1
20260506003613 13 14 11.3 17.7 0.00 0.00 0.00 81 1016.1
20260506003012 13 19 6.4 14.5 0.00 0.00 0.00 81 1016.2
20260506002547 13 24 8.0 14.5 0.00 0.00 0.00 81 1016.2
20260506002024 13 340 6.4 14.5 0.00 0.00 0.00 81 1016.3
20260506001530 13 46 8.0 14.5 0.00 0.00 0.00 81 1016.3
20260506001029 13 16 8.0 12.9 0.00 0.00 0.00 81 1016.4
20260506000532 13 17 4.8 11.3 0.00 0.00 0.00 81 1016.3
20260506000011 13 357 3.2 9.7 0.00 0.00 0.00 81 1016.4
20260505235529 13 1 1.6 9.7 0.00 0.00 0.00 81 1016.4
20260505235028 13 297 3.2 12.9 0.00 0.00 0.00 81 1016.4
20260505234533 13 353 3.2 12.9 0.00 0.00 0.00 81 1016.5
20260505234030 13 11 4.8 12.9 0.00 0.00 0.00 81 1016.4
20260505233515 13 321 6.4 12.9 0.00 0.00 0.00 81 1016.4
20260505233012 13 353 1.6 11.3 0.00 0.00 0.00 81 1016.4
20260505232550 13 25 4.8 11.3 0.00 0.00 0.00 81 1016.4
20260505232015 13 37 6.4 11.3 0.00 0.00 0.00 81 1016.4
20260505231520 13 322 3.2 22.5 0.00 0.00 0.00 80 1016.4
20260505231018 13 307 6.4 22.5 0.00 0.00 0.00 80 1016.3
20260505230544 13 318 4.8 20.9 0.00 0.00 0.00 80 1016.4
20260505230029 13 9 9.7 20.9 0.00 0.00 0.00 80 1016.4
20260505225519 13 347 8.0 24.1 0.00 0.00 0.00 80 1016.4
20260505225018 13 342 9.7 24.1 0.00 0.00 0.00 80 1016.4
20260505224531 13 303 8.0 19.3 0.00 0.00 0.00 80 1016.5
20260505224037 13 351 8.0 22.5 0.00 0.00 0.00 80 1016.5
20260505223522 13 330 9.7 24.1 0.00 0.00 0.00 79 1016.5
20260505223022 13 320 11.3 24.1 0.00 0.00 0.00 79 1016.5
20260505222512 13 297 11.3 24.1 0.00 0.00 0.00 79 1016.5
20260505222017 13 351 8.0 0.0 0.00 0.00 0.00 79 1016.5
20260505221513 13 318 9.7 19.3 0.00 0.00 0.00 78 1016.6
20260505221020 13 324 8.0 25.7 0.00 0.00 0.00 78 1016.7
20260505220545 13 345 12.9 25.7 0.00 0.00 0.00 78 1016.8
20260505220023 13 309 9.7 22.5 0.00 0.00 0.00 78 1016.8
20260505215512 13 319 12.9 27.4 0.00 0.00 0.00 77 1016.8
20260505215020 13 334 9.7 32.2 0.00 0.00 0.00 77 1016.8
20260505214525 13 330 12.9 32.2 0.00 0.00 0.00 77 1016.7
20260505214009 13 342 14.5 30.6 0.00 0.00 0.00 77 1016.7
20260505213024 13 205 9.7 24.1 0.00 0.00 0.00 77 1016.8
20260505212526 13 324 11.3 24.1 0.00 0.00 0.00 77 1016.8
20260505212025 13 63 12.9 24.1 0.00 0.00 0.00 77 1016.8
20260505211014 14 294 12.9 24.1 0.00 0.00 0.00 77 1016.9
20260505210514 14 336 12.9 20.9 0.00 0.00 0.00 77 1016.9
20260505210023 14 324 11.3 22.5 0.00 0.00 0.00 77 1016.9
20260505205531 14 343 12.9 19.3 0.00 0.00 0.00 77 1017.0
20260505205017 14 359 11.3 0.0 0.00 0.00 0.00 77 1016.9
20260505204532 14 345 11.3 20.9 0.00 0.00 0.00 77 1017.0
20260505204017 14 344 11.3 22.5 0.00 0.00 0.00 76 1017.0
20260505203517 14 299 11.3 24.1 0.00 0.00 0.00 76 1016.9
20260505203023 14 284 12.9 24.1 0.00 0.00 0.00 75 1017.0
20260505202511 14 7 11.3 25.7 0.00 0.00 0.00 75 1016.9
20260505202010 15 351 16.1 29.0 0.00 0.00 0.00 75 1016.8
20260505201536 15 332 14.5 32.2 0.00 0.00 0.00 74 1016.8
20260505201021 15 352 14.5 32.2 0.00 0.00 0.00 73 1016.7
20260505200521 15 12 16.1 30.6 0.00 0.00 0.00 73 1016.6
20260505200027 15 352 19.3 30.6 0.00 0.00 0.00 73 1016.6
20260505195535 15 343 16.1 32.2 0.00 0.00 0.00 73 1016.6
20260505195041 15 345 22.5 32.2 0.00 0.00 0.00 73 1016.5
20260505194041 15 338 17.7 29.0 0.00 0.00 0.00 73 1016.5
20260505193525 15 357 14.5 30.6 0.00 0.00 0.00 73 1016.5
20260505193023 15 345 17.7 32.2 0.00 0.00 0.00 72 1016.4
20260505192516 15 6 17.7 33.8 0.00 0.00 0.00 71 1016.3
20260505192028 15 348 19.3 33.8 0.00 0.00 0.00 70 1016.4
20260505191526 15 333 17.7 33.8 0.00 0.00 0.00 69 1016.3
20260505191024 15 190 20.9 32.2 0.00 0.00 0.00 69 1016.3
20260505190529 16 190 19.3 33.8 0.00 0.00 0.00 69 1016.3
20260505190028 16 190 17.7 37.0 0.00 0.00 0.00 69 1016.3
20260505185522 16 190 24.1 40.2 0.00 0.00 0.00 69 1016.2
20260505185022 16 190 17.7 30.6 0.00 0.00 0.00 68 1016.3
20260505184015 16 190 24.1 38.6 0.00 0.00 0.00 67 1016.1
20260505183512 16 190 25.7 38.6 0.00 0.00 0.00 66 1016.2
20260505183020 16 190 20.9 40.2 0.00 0.00 0.00 64 1016.2
20260505182519 16 190 20.9 40.2 0.00 0.00 0.00 65 1016.2
20260505182025 16 190 11.3 35.4 0.00 0.00 0.00 66 1016.3
20260505181510 16 190 22.5 37.0 0.00 0.00 0.00 65 1016.2
20260505181029 16 190 20.9 37.0 0.00 0.00 0.00 66 1016.2
20260505180516 16 190 24.1 41.8 0.00 0.00 0.00 65 1016.3
20260505180012 16 190 24.1 41.8 0.00 0.00 0.00 66 1016.3
20260505175529 16 190 19.3 37.0 0.00 0.00 0.00 68 1016.4
20260505175028 16 190 22.5 37.0 0.00 0.00 0.00 68 1016.4
20260505174523 16 190 22.5 35.4 0.00 0.00 0.00 67 1016.3
20260505174028 16 190 20.9 27.4 0.00 0.00 0.00 66 1016.4
20260505173525 17 190 12.9 33.8 0.00 0.00 0.00 67 1016.4
20260505173030 16 190 19.3 33.8 0.00 0.00 0.00 67 1016.4
20260505172520 17 190 19.3 33.8 0.00 0.00 0.00 67 1016.4
20260505172032 17 190 20.9 30.6 0.00 0.00 0.00 67 1016.4
20260505171511 17 190 17.7 32.2 0.00 0.00 0.00 66 1016.4
20260505171014 17 190 22.5 32.2 0.00 0.00 0.00 64 1016.5
20260505170512 17 190 20.9 35.4 0.00 0.00 0.00 66 1016.5
20260505170021 17 190 25.7 35.4 0.00 0.00 0.00 66 1016.5
20260505165541 17 190 22.5 32.2 0.00 0.00 0.00 66 1016.5
20260505165025 17 190 19.3 32.2 0.00 0.00 0.00 66 1016.5
20260505164524 17 190 22.5 32.2 0.00 0.00 0.00 65 1016.4
20260505164027 17 190 19.3 32.2 0.00 0.00 0.00 64 1016.4
20260505163525 17 190 22.5 35.4 0.00 0.00 0.00 64 1016.4
20260505163030 17 190 24.1 35.4 0.00 0.00 0.00 62 1016.4
20260505162519 17 190 20.9 35.4 0.00 0.00 0.00 61 1016.4
20260505162016 17 190 25.7 35.4 0.00 0.00 0.00 60 1016.4
20260505161523 17 190 25.7 33.8 0.00 0.00 0.00 61 1016.5
20260505161021 17 190 20.9 33.8 0.00 0.00 0.00 62 1016.4
20260505153009 17 326 19.3 29.0 0.00 0.00 0.00 62 1016.5
20260505152521 17 190 16.1 29.0 0.00 0.00 0.00 61 1016.5
20260505152026 17 190 16.1 33.8 0.00 0.00 0.00 62 1016.6
20260505151522 17 190 17.7 33.8 0.00 0.00 0.00 62 1016.6
20260505151028 17 190 12.9 32.2 0.00 0.00 0.00 61 1016.6
20260505150525 17 190 12.9 27.4 0.00 0.00 0.00 61 1016.6
20260505140516 18 10 17.7 29.0 0.00 0.00 0.00 59 1016.9
20260505125012 17 190 17.7 27.4 0.00 0.00 0.00 57 1017.0
20260505124011 17 190 9.7 27.4 0.00 0.00 0.00 57 1017.0
20260505123018 18 332 17.7 29.0 0.00 0.00 0.00 56 1017.0
20260505122534 18 329 11.3 27.4 0.00 0.00 0.00 55 1017.1
20260505122012 18 343 14.5 25.7 0.00 0.00 0.00 55 1017.2
20260505121525 18 336 16.1 25.7 0.00 0.00 0.00 54 1017.2
20260505121023 18 190 8.0 24.1 0.00 0.00 0.00 52 1017.2
20260505120516 17 190 12.9 27.4 0.00 0.00 0.00 51 1017.3
20260505120021 17 190 11.3 33.8 0.00 0.00 0.00 53 1017.3
20260505115518 17 190 19.3 30.6 0.00 0.00 0.00 52 1017.3
20260505115012 17 272 16.1 30.6 0.00 0.00 0.00 50 1017.4
20260505114019 17 190 9.7 24.1 0.00 0.00 0.00 54 1017.5
20260505113544 17 190 12.9 24.1 0.00 0.00 0.00 58 1017.5
20260505113026 17 306 12.9 22.5 0.00 0.00 0.00 60 1017.6
20260505112515 17 190 12.9 25.7 0.00 0.00 0.00 58 1017.7
20260505111528 16 190 9.7 32.2 0.00 0.00 0.00 58 1017.8
20260505111023 16 329 16.1 27.4 0.00 0.00 0.00 55 1017.9
20260505110526 16 190 17.7 27.4 0.00 0.00 0.00 58 1017.9
20260505102012 15 190 12.9 20.9 0.00 0.00 0.00 61 1018.0
20260505101518 15 190 9.7 19.3 0.00 0.00 0.00 63 1018.0
20260505101015 15 190 11.3 24.1 0.00 0.00 0.00 64 1018.0
20260505100526 15 190 14.5 24.1 0.00 0.00 0.00 64 1018.0
20260505100012 15 190 9.7 20.9 0.00 0.00 0.00 65 1018.0
20260505095527 15 190 8.0 20.9 0.00 0.00 0.00 66 1018.0
20260505095017 15 190 9.7 24.1 0.00 0.00 0.00 68 1018.1
20260505094522 15 190 4.8 24.1 0.00 0.00 0.00 69 1018.0
20260505094027 15 190 8.0 24.1 0.00 0.00 0.00 68 1018.0
20260505093525 15 190 17.7 24.1 0.00 0.00 0.00 67 1017.9
20260505093010 15 190 12.9 22.5 0.00 0.00 0.00 68 1017.9
20260505092523 15 190 16.1 22.5 0.00 0.00 0.00 67 1018.0
20260505092048 15 190 11.3 20.9 0.00 0.00 0.00 68 1017.9
20260505091525 15 190 9.7 20.9 0.00 0.00 0.00 68 1017.9
20260505091031 15 190 8.0 24.1 0.00 0.00 0.00 69 1017.9
20260505090550 15 190 14.5 24.1 0.00 0.00 0.00 69 1017.9
20260505090034 16 312 3.2 12.9 0.00 0.00 0.00 70 1017.9
20260505085512 15 16 3.2 16.1 0.00 0.00 0.00 71 1017.8
20260505085009 15 318 8.0 16.1 0.00 0.00 0.00 71 1017.9
20260505084518 15 345 9.7 16.1 0.00 0.00 0.00 72 1017.8
20260505084015 15 333 4.8 17.7 0.00 0.00 0.00 73 1017.9
20260505083520 15 190 8.0 17.7 0.00 0.00 0.00 73 1017.9
20260505083018 15 190 8.0 16.1 0.00 0.00 0.00 73 1017.8
20260505082542 15 8 4.8 16.1 0.00 0.00 0.00 73 1017.9
20260505082026 15 190 4.8 16.1 0.00 0.00 0.00 73 1017.9
20260505081524 15 323 6.4 17.7 0.00 0.00 0.00 74 1017.9
20260505081031 14 347 8.0 17.7 0.00 0.00 0.00 75 1017.9
20260505080528 14 190 8.0 19.3 0.00 0.00 0.00 76 1017.8
20260505080013 14 190 11.3 19.3 0.00 0.00 0.00 76 1017.8
20260505075509 14 190 4.8 12.9 0.00 0.00 0.00 77 1017.7
20260505075018 14 190 6.4 12.9 0.00 0.00 0.00 77 1017.7
20260505074514 13 190 4.8 14.5 0.00 0.00 0.00 77 1017.7
20260505074012 13 190 6.4 11.3 0.00 0.00 0.00 77 1017.7
20260505073040 13 190 4.8 16.1 0.00 0.00 0.00 78 1017.7
20260505072535 13 313 6.4 16.1 0.00 0.00 0.00 78 1017.6
20260505072025 13 270 6.4 20.9 0.00 0.00 0.00 78 1017.6
20260505071523 13 320 8.0 20.9 0.00 0.00 0.00 79 1017.5
20260505071048 13 303 11.3 19.3 0.00 0.00 0.00 79 1017.4
20260505070519 13 338 9.7 17.7 0.00 0.00 0.00 79 1017.4
20260505070050 13 324 11.3 19.3 0.00 0.00 0.00 80 1017.4
20260505065545 13 309 12.9 19.3 0.00 0.00 0.00 80 1017.3
20260505065022 13 324 14.5 20.9 0.00 0.00 0.00 80 1017.3
20260505064528 13 315 12.9 19.3 0.00 0.00 0.00 80 1017.3
20260505064025 13 334 12.9 19.3 0.00 0.00 0.00 80 1017.3
20260505063523 12 333 12.9 19.3 0.00 0.00 0.00 80 1017.3
20260505063035 12 293 11.3 17.7 0.00 0.00 0.00 80 1017.3
20260505062524 13 335 12.9 16.1 0.00 0.00 0.00 80 1017.3
20260505062009 13 345 8.0 14.5 0.00 0.00 0.00 80 1017.3
20260505061518 13 348 9.7 16.1 0.00 0.00 0.00 80 1017.2
20260505061017 12 311 11.3 16.1 0.00 0.00 0.00 81 1017.2
20260505060522 12 323 11.3 16.1 0.00 0.00 0.00 81 1017.2
20260505060021 12 328 11.3 17.7 0.00 0.00 0.00 81 1017.1
20260505055513 12 328 12.9 17.7 0.00 0.00 0.00 81 1017.1
20260505055011 12 340 9.7 16.1 0.00 0.00 0.00 81 1017.0
20260505054537 12 332 12.9 16.1 0.00 0.00 0.00 81 1017.0
20260505054014 12 318 11.3 14.5 0.00 0.00 0.00 81 1017.0
20260505053512 12 322 9.7 14.5 0.00 0.00 0.00 81 1017.0
20260505052522 12 321 9.7 16.1 0.00 0.00 0.00 81 1016.9
20260505052020 12 319 11.3 17.7 0.00 0.00 0.00 80 1016.9
20260505051544 12 328 9.7 16.1 0.00 0.00 0.00 80 1016.9
20260505051028 12 322 11.3 17.7 0.00 0.00 0.00 80 1016.9
20260505050512 12 309 11.3 17.7 0.00 0.00 0.00 80 1016.9